This demonstration page uses our WeatherBlox Daily Observations layout. Learn more.

Left ArrowRight Arrow

36.17497, -115.13722

Hourly Observations for October 1, 2016

Temp ( °F °C ) Dew Point ( °F °C ) Humidity (%) Winds ( mph kmh ) Pressure ( in mb ) Visibility ( mi km ) Precip ( " mm )
12:53 am 00:53 Clear 76 24.4 44 6.7 32 32 Calm 29.94 1014 10 16.0934 0 0
1:53 am 01:53 Clear 73 22.8 44 6.7 35 35 NW 3 6 29.94 1014 10 16.0934 0 0
2:53 am 02:53 Clear 73 22.8 47 8.3 40 40 Calm 29.94 1014 10 16.0934 0 0
3:53 am 03:53 Mostly Clear 70 21.1 46 7.8 42 42 N 5 7 29.94 1014 10 16.0934 0 0
4:53 am 04:53 Clear 70 21.1 47 8.3 44 44 NW 3 6 29.94 1014 10 16.0934 0 0
5:53 am 05:53 Clear 70 21.1 47 8.3 44 44 Calm 29.94 1014 10 16.0934 0 0
6:53 am 06:53 Sunny 69 20.6 47 8.3 45 45 WNW 3 6 29.96 1015 10 16.0934 0 0
8:53 am 08:53 Sunny 77 25 46 7.8 33 33 SSE 5 7 29.97 1015 10 16.0934 0 0
9:53 am 09:53 Sunny 84 28.9 43 6.1 24 24 S 14 22 29.96 1015 10 16.0934 0 0
10:53 am 10:53 Sunny 87 30.6 42 5.6 21 21 SSW 13 20 29.95 1014 10 16.0934 0 0
11:53 am 11:53 Sunny 88 31.1 41 5 19 19 SSW 18 30 29.94 1014 10 16.0934 0 0
12:53 pm 12:53 Sunny 89 31.7 43 6.1 20 20 SSW 17 28 29.91 1013 10 16.0934 0 0
1:53 pm 13:53 Sunny 90 32.2 42 5.6 19 19 S 21 33 29.89 1012 10 16.0934 0 0
2:53 pm 14:53 Sunny 90 32.2 41 5 18 18 SW 16 26 29.87 1012 10 16.0934 0 0
3:53 pm 15:53 Sunny 90 32.2 39 3.9 17 17 WSW 16 26 29.85 1011 10 16.0934 0 0
4:53 pm 16:53 Sunny 90 32.2 34 1.1 14 14 WSW 15 24 29.84 1010 10 16.0934 0 0
5:53 pm 17:53 Sunny 88 31.1 32 0 13 13 WSW 13 20 29.83 1010 10 16.0934 0 0
6:53 pm 18:53 Clear 86 30 35 1.7 16 16 WSW 8 13 29.84 1011 10 16.0934 0 0
7:53 pm 19:53 Clear 84 28.9 36 2.2 18 18 W 7 11 29.85 1011 10 16.0934 0 0
8:53 pm 20:53 Clear 83 28.3 38 3.3 20 20 SSW 5 7 29.86 1011 10 16.0934 0 0
9:53 pm 21:53 Clear 80 26.7 39 3.9 23 23 S 3 6 29.86 1011 10 16.0934 0 0
10:53 pm 22:53 Clear 77 25 39 3.9 26 26 S 5 7 29.86 1011 10 16.0934 0 0
11:53 pm 23:53 Clear 77 25 41 5 28 28 SSW 6 9 29.85 1011 10 16.0934 0 0

Powered by AerisWeather